• în România
  • Lista ţărilor
  • Pe 7 zile
  • Temperatura apei
  • Hartă satelitară
  • Meteo pe hartă
  • Widget-uri
  • user-avatar
    Intrare

    Meteo pe oră la Gavrilova Polyana

    Astăzi, 25 Septembrie, Marţi

    Timp Temperatura Precipitaţii Vânt Presiune Umiditate
    00:00 +13°C° 0 mm 1 m/s 753 mmHg 92%
    01:00 +13°C° 0 mm 2 m/s 753 mmHg 93%
    02:00 +12°C° 0 mm 2 m/s 753 mmHg 94%
    03:00 +12°C° 0 mm 2 m/s 753 mmHg 95%
    04:00 +12°C° 0 mm 2 m/s 753 mmHg 96%
    05:00 +10°C° 0 mm 2 m/s 753 mmHg 96%
    06:00 +10°C° 0 mm 2 m/s 753 mmHg 97%
    07:00 +12°C° 0 mm 3 m/s 753 mmHg 90%
    08:00 +13°C° 0 mm 4 m/s 753 mmHg 83%
    09:00 +14°C° 0 mm 4 m/s 753 mmHg 76%
    10:00 +15°C° 0 mm 5 m/s 753 mmHg 69%
    11:00 +16°C° 0 mm 5 m/s 753 mmHg 62%
    12:00 +19°C° 0 mm 5 m/s 752 mmHg 56%
    13:00 +19°C° 0 mm 6 m/s 752 mmHg 52%
    14:00 +19°C° 0 mm 6 m/s 752 mmHg 49%
    15:00 +18°C° 0 mm 7 m/s 752 mmHg 46%
    16:00 +19°C° 0.1 mm 6 m/s 751 mmHg 47%
    17:00 +17°C° 0.1 mm 6 m/s 751 mmHg 47%
    18:00 +17°C° 0.1 mm 5 m/s 751 mmHg 48%
    19:00 +17°C° 0 mm 6 m/s 751 mmHg 45%
    20:00 +17°C° 0 mm 6 m/s 751 mmHg 43%
    21:00 +17°C° 0 mm 7 m/s 751 mmHg 40%
    22:00 +17°C° 0 mm 7 m/s 751 mmHg 44%
    23:00 +16°C° 0 mm 6 m/s 751 mmHg 48%

    Mâine, 26 Septembrie, Miercuri

    Timp Temperatura Precipitaţii Vânt Presiune Umiditate
    00:00 +16°C° 0 mm 6 m/s 752 mmHg 51%
    01:00 +15°C° 0.1 mm 5 m/s 752 mmHg 60%
    02:00 +13°C° 0.1 mm 4 m/s 753 mmHg 68%
    03:00 +12°C° 0.1 mm 3 m/s 753 mmHg 77%
    04:00 +12°C° 0 mm 3 m/s 754 mmHg 79%
    05:00 +11°C° 0 mm 3 m/s 754 mmHg 81%
    06:00 +10°C° 0 mm 2 m/s 754 mmHg 83%
    07:00 +10°C° 0.2 mm 2 m/s 755 mmHg 79%
    08:00 +12°C° 0.2 mm 2 m/s 756 mmHg 76%
    09:00 +12°C° 0.2 mm 2 m/s 756 mmHg 72%
    10:00 +12°C° 0.1 mm 3 m/s 757 mmHg 68%
    11:00 +12°C° 0.1 mm 3 m/s 757 mmHg 65%
    12:00 +13°C° 0.1 mm 3 m/s 757 mmHg 62%
    13:00 +13°C° 0 mm 3 m/s 758 mmHg 60%
    14:00 +13°C° 0 mm 3 m/s 758 mmHg 58%
    15:00 +14°C° 0 mm 3 m/s 758 mmHg 56%
    16:00 +13°C° 0 mm 3 m/s 758 mmHg 60%
    17:00 +12°C° 0 mm 3 m/s 758 mmHg 63%
    18:00 +12°C° 0 mm 2 m/s 759 mmHg 67%
    19:00 +10°C° 0 mm 2 m/s 759 mmHg 70%
    20:00 +10°C° 0 mm 2 m/s 759 mmHg 74%
    21:00 +9°C° 0 mm 2 m/s 759 mmHg 77%
    22:00 +8°C° 0 mm 2 m/s 759 mmHg 80%
    23:00 +8°C° 0 mm 3 m/s 759 mmHg 83%

    Poimâine, 27 Septembrie, Joi

    Timp Temperatura Precipitaţii Vânt Presiune Umiditate
    00:00 +7°C° 0 mm 3 m/s 759 mmHg 85%
    01:00 +5°C° 0 mm 3 m/s 759 mmHg 87%
    02:00 +5°C° 0 mm 3 m/s 759 mmHg 90%
    03:00 +5°C° 0 mm 3 m/s 759 mmHg 92%
    04:00 +4°C° 0 mm 3 m/s 759 mmHg 92%
    05:00 +4°C° 0 mm 3 m/s 759 mmHg 92%
    06:00 +4°C° 0 mm 3 m/s 759 mmHg 93%
    07:00 +5°C° 0 mm 4 m/s 758 mmHg 82%
    08:00 +6°C° 0 mm 5 m/s 758 mmHg 72%
    09:00 +7°C° 0 mm 6 m/s 758 mmHg 61%
    10:00 +8°C° 0 mm 6 m/s 757 mmHg 56%
    11:00 +9°C° 0 mm 6 m/s 757 mmHg 51%
    12:00 +10°C° 0 mm 7 m/s 756 mmHg 46%
    13:00 +10°C° 0 mm 7 m/s 756 mmHg 45%
    14:00 +11°C° 0 mm 7 m/s 755 mmHg 44%
    15:00 +11°C° 0 mm 8 m/s 755 mmHg 43%
    16:00 +10°C° 0 mm 7 m/s 754 mmHg 45%
    17:00 +9°C° 0 mm 6 m/s 754 mmHg 48%
    18:00 +9°C° 0 mm 6 m/s 753 mmHg 50%
    19:00 +8°C° 0.2 mm 6 m/s 753 mmHg 54%
    20:00 +8°C° 0.2 mm 6 m/s 752 mmHg 58%
    21:00 +6°C° 0.2 mm 7 m/s 752 mmHg 61%
    22:00 +6°C° 0.8 mm 7 m/s 751 mmHg 67%
    23:00 +5°C° 0.8 mm 7 m/s 751 mmHg 73%

    28 Septembrie, Vineri

    Timp Temperatura Precipitaţii Vânt Presiune Umiditate
    00:00 +5°C° 0.8 mm 7 m/s 750 mmHg 78%
    01:00 +5°C° 0.1 mm 7 m/s 750 mmHg 80%
    02:00 +7°C° 0.1 mm 6 m/s 750 mmHg 82%
    03:00 +7°C° 0.1 mm 6 m/s 750 mmHg 83%
    04:00 +6°C° 0 mm 5 m/s 751 mmHg 85%
    05:00 +6°C° 0 mm 5 m/s 751 mmHg 87%
    06:00 +5°C° 0 mm 4 m/s 752 mmHg 89%
    07:00 +6°C° 0 mm 5 m/s 752 mmHg 82%
    08:00 +8°C° 0 mm 6 m/s 753 mmHg 75%
    09:00 +9°C° 0 mm 6 m/s 753 mmHg 67%
    10:00 +9°C° 0 mm 6 m/s 754 mmHg 62%
    11:00 +10°C° 0 mm 6 m/s 754 mmHg 56%
    12:00 +11°C° 0 mm 6 m/s 754 mmHg 51%
    13:00 +11°C° 0 mm 6 m/s 754 mmHg 50%
    14:00 +13°C° 0 mm 6 m/s 754 mmHg 49%
    15:00 +13°C° 0 mm 6 m/s 754 mmHg 48%
    16:00 +12°C° 0 mm 5 m/s 754 mmHg 51%
    17:00 +11°C° 0 mm 4 m/s 754 mmHg 54%
    18:00 +10°C° 0 mm 4 m/s 754 mmHg 57%
    19:00 +10°C° 0 mm 4 m/s 753 mmHg 57%
    20:00 +9°C° 0 mm 5 m/s 753 mmHg 56%
    21:00 +9°C° 0 mm 6 m/s 753 mmHg 56%
    22:00 +9°C° 0 mm 6 m/s 752 mmHg 57%
    23:00 +10°C° 0 mm 7 m/s 752 mmHg 58%

    29 Septembrie, Sâmbătă

    Timp Temperatura Precipitaţii Vânt Presiune Umiditate
    00:00 +10°C° 0 mm 7 m/s 751 mmHg 58%
    01:00 +10°C° 0 mm 7 m/s 751 mmHg 62%
    02:00 +10°C° 0 mm 7 m/s 751 mmHg 65%
    03:00 +10°C° 0 mm 7 m/s 750 mmHg 68%
    04:00 +10°C° 0 mm 8 m/s 750 mmHg 71%
    05:00 +11°C° 0 mm 8 m/s 751 mmHg 74%
    06:00 +11°C° 0 mm 8 m/s 751 mmHg 77%
    07:00 +11°C° 0.2 mm 7 m/s 751 mmHg 79%
    08:00 +11°C° 0.2 mm 6 m/s 752 mmHg 80%
    09:00 +12°C° 0.2 mm 5 m/s 753 mmHg 82%
    10:00 +12°C° 0.1 mm 5 m/s 753 mmHg 77%
    11:00 +12°C° 0.1 mm 4 m/s 754 mmHg 72%
    12:00 +12°C° 0.1 mm 3 m/s 755 mmHg 67%
    13:00 +12°C° 0 mm 3 m/s 755 mmHg 64%
    14:00 +12°C° 0 mm 3 m/s 756 mmHg 62%
    15:00 +13°C° 0 mm 2 m/s 756 mmHg 60%
    16:00 +12°C° 0 mm 2 m/s 756 mmHg 60%
    17:00 +10°C° 0 mm 2 m/s 757 mmHg 61%
    18:00 +9°C° 0 mm 2 m/s 757 mmHg 62%
    19:00 +9°C° 0 mm 2 m/s 757 mmHg 62%
    20:00 +9°C° 0 mm 2 m/s 758 mmHg 62%
    21:00 +9°C° 0 mm 2 m/s 758 mmHg 61%
    22:00 +8°C° 0 mm 2 m/s 758 mmHg 62%
    23:00 +8°C° 0 mm 2 m/s 758 mmHg 63%

    30 Septembrie, Duminică

    Timp Temperatura Precipitaţii Vânt Presiune Umiditate
    00:00 +8°C° 0 mm 2 m/s 758 mmHg 63%
    01:00 +8°C° 0 mm 2 m/s 758 mmHg 64%
    02:00 +7°C° 0 mm 2 m/s 759 mmHg 65%
    03:00 +7°C° 0 mm 2 m/s 759 mmHg 65%
    04:00 +7°C° 0.1 mm 2 m/s 759 mmHg 66%
    05:00 +7°C° 0.1 mm 2 m/s 759 mmHg 67%
    06:00 +7°C° 0.1 mm 2 m/s 759 mmHg 68%
    07:00 +7°C° 0.1 mm 2 m/s 760 mmHg 68%
    08:00 +7°C° 0.1 mm 2 m/s 760 mmHg 67%
    09:00 +7°C° 0.1 mm 2 m/s 760 mmHg 67%
    10:00 +8°C° 0.1 mm 2 m/s 760 mmHg 64%
    11:00 +9°C° 0.1 mm 3 m/s 760 mmHg 61%
    12:00 +9°C° 0.1 mm 3 m/s 761 mmHg 58%
    13:00 +10°C° 0 mm 3 m/s 761 mmHg 56%
    14:00 +10°C° 0 mm 3 m/s 761 mmHg 53%
    15:00 +11°C° 0 mm 3 m/s 761 mmHg 50%
    16:00 +9°C° 0 mm 3 m/s 761 mmHg 54%
    17:00 +8°C° 0 mm 3 m/s 761 mmHg 59%
    18:00 +7°C° 0 mm 3 m/s 762 mmHg 63%
    19:00 +7°C° 0 mm 3 m/s 762 mmHg 65%
    20:00 +5°C° 0 mm 3 m/s 762 mmHg 68%
    21:00 +4°C° 0 mm 3 m/s 763 mmHg 70%
    22:00 +4°C° 0 mm 3 m/s 763 mmHg 71%
    23:00 +3°C° 0 mm 3 m/s 763 mmHg 72%
    Arată mai mult